Showing default

YAOGAN-30 U, 46807

Orbit data source: Space-Track

YAOGAN-30 U, 46807 is a payload satellite owned by PLA SSF (CN) in LEO that was launched on Mon, 26 Oct 2020 UTC via a CHANG ZHENG 2C launch vehicle from the Xichang Space Center, China (XSC). Payloads include a variety of satellites, spacecraft, and rockets equipped with specific instruments for various scientific and technological missions. These include communications satellites like Starlink; space stations such as the ISS; scientific satellites like the Hubble; Earth observation satellites from companies like Planet Labs, Umbra, and HawkEye 360; GPS; miniature CubeSats for education and research; and military/defense satellites.

Loading next visibility...
YAOGAN-30 U details
Identifier
46807, 2020-076A
Orbit
LEO
Last TLE update11 hours ago
Origin
Flag of CNPLA SSF (CN / PRC)
ManufacturerSECM
MissionOperational Defense Sigint
Bus & MotorUnknown
Mass~500 kg wet, ~500 kg dry
Launch date (UTC)
2020-10-26 (4 years ago)
Launch vehicle
CHANG ZHENG 2C
Launch site
Xichang Space Center, China (XSC)
Object type
Payload
Rocket body
Debris
Shape & HBRBox + 2 Pan, Unknown HBR
Radar Cross Section0.446 m², Large (>1 m²)

Expand to show TLE details & history

TLE from 11 hours ago
0 YAOGAN-30 U
1 46807U 20076A   24361.03772967  .00007375  00000-0  61196-3 0  9995
2 46807  34.9933 121.1782 0000967  88.8150 271.2668 14.98143600227348
Epoch: 2024-12-26T00:54Z
Definitive object data (Epoch: 2024-12-26T00:54:19.843Z)
Latitude0.00001°
Longitude12.57266°
Altitude571.536 km
Speed7.577 km/s
True Right ascension08h 04m 42s
True Declination0° 00' 00"
Sunlit
Object was in full shadow at TLE epoch
Visualization TLE readout
Latitude-35.13303°
Longitude-78.78535°
Altitude582.492 km
Speed7.57 km/s
Apparent Right ascension00h 38m 28s
Apparent Declination-39° 19' 27"
Sunlit
Object is in daylight
Visualization observer readout
Local Sidereal Time11:03:45
Azimuth264.217° W
Elevation-71.802°
Doppler factor1
Orbital elements
Apogee altitude576.521 km
Perigee altitude575.176 km
Semi-major axis6,953.985 km
Eccentricity0.0000967
Inclination34.9933°
RAAN121.1782°
Arg. of periapsis88.815°
True anomaly271.25572°
Mean anomaly271.2668°
Eccentric anomaly271.26126°
Mean motion3.74276 °/min
BSTAR0.00061196
Orbital period96.19 mins
Loading maneuver chart data...
Loading historical data...
Loading historical data...
Loading historical data...
Loading historical data...
Loading historical data...
Loading historical data...
Loading historical data...
Other satellites on launch #76 in the year 2020 (2020-10-26 UTC)

YAOGAN-30 U Visibility forecast

Observer location: undefined°, undefined

Span
Click to sort rows by Start time (UTC) header in descending order
Start Az.
Max El. time (UTC)
Max El. Az.
Max El.
End time (UTC)
End Az.
6 mins2024-12-26 12:20:21.871Z214.254° SW2024-12-26 12:23:21.871Z166.965° S22.732°2024-12-26 12:26:21.871Z112.726° SE
6 mins2024-12-26 14:02:21.871Z235.481° WSW2024-12-26 14:04:21.871Z191.14° SSW33.155°2024-12-26 14:08:21.871Z107.6° ESE
6 mins2024-12-26 15:43:21.871Z247.229° WSW2024-12-26 15:46:21.871Z178.648° S29.065°2024-12-26 15:49:21.871Z129.279° SE
|